Wind_Speed
3 4 3 3 4 3 3 2 2 3 2 1 3 3 5 6 4 5 0 10 8 21 23 26 25 22 20 19 17 15 14 12 11 10 9 8 9 7 5 8 10 9 6 4 4 5 4 4 3
2 3 2 1 4 4 2 0 2 2 1 2 4 4 5 7 4 3 2 12 12 20 23 24 26 24 22 20 18 16 14 14 11 9 7 7 6 7 7 8 8 6 4 3 4 5 4 3 2
1 3 3 2 2 3 3 1 2 2 3 5 3 3 4 2 2 2 2 14 14 19 20 21 27 25 23 20 18 17 16 15 11 11 9 9 9 7 6 9 7 6 5 4 4 3 3 2 1
1 2 2 4 7 9 6 6 7 8 2 4 3 6 3 5 1 2 3 17 16 18 18 19 25 24 23 21 18 17 19 16 15 14 13 11 10 9 7 7 8 8 8 6 4 4 4 3 3
2 1 3 3 6 5 8 8 6 5 2 3 3 2 4 2 6 3 6 16 17 21 20 18 23 22 22 22 20 19 19 18 18 16 13 13 13 11 9 9 9 9 7 6 6 5 3 2 1
2 2 3 5 4 6 8 6 5 6 2 1 4 6 4 3 4 6 8 13 14 20 21 21 25 23 22 22 21 21 22 21 20 16 15 15 15 13 11 11 10 9 7 7 7 5 5 4 4
2 2 3 5 7 5 2 1 3 3 3 5 1 4 3 5 4 6 8 12 14 18 20 20 22 26 24 21 23 22 21 21 21 17 15 16 16 14 13 12 11 10 10 10 9 8 6 4 4
2 2 2 4 3 5 2 2 2 5 4 2 2 5 5 3 5 7 9 12 15 18 20 21 21 23 23 23 24 24 22 23 21 19 17 19 18 16 14 14 12 11 11 11 10 8 6 3 2
1 4 5 4 5 3 4 5 4 2 7 4 7 8 7 5 5 7 9 12 16 19 22 22 23 23 24 23 24 25 23 23 23 22 23 22 15 14 14 13 14 13 11 11 9 8 6 4 3
5 4 6 5 6 5 4 5 7 6 12 14 12 17 14 7 9 12 15 18 22 24 26 25 25 25 24 24 23 25 25 26 24 22 22 20 17 15 15 15 17 16 14 12 11 9 6 4 3
5 7 8 8 12 7 7 7 5 10 16 16 13 11 9 13 15 17 20 22 24 24 24 29 27 27 26 25 23 23 25 25 24 24 23 22 19 19 18 15 16 14 15 10 10 9 8 7 6
6 12 11 4 3 3 6 5 8 14 26 21 19 18 14 14 14 20 23 24 24 23 26 25 28 28 28 26 26 24 25 27 26 26 27 25 23 20 19 18 18 16 15 14 13 12 10 9 7
9 11 10 12 9 9 10 20 15 22 25 25 20 15 18 17 21 21 22 22 22 25 25 27 28 31 29 29 28 28 28 28 26 25 29 28 24 24 22 20 19 18 19 17 15 13 12 10 8
2 8 13 10 13 11 11 25 4 16 14 17 14 17 15 16 19 19 19 23 24 24 26 25 29 31 30 33 31 31 29 29 29 28 31 34 29 27 24 22 22 21 21 18 16 14 13 11 9
4 11 16 14 11 9 9 13 17 22 11 15 19 16 12 13 16 19 21 22 23 25 23 28 31 32 35 35 35 34 32 31 31 31 34 36 35 31 29 26 26 24 23 21 18 16 13 11 10
6 4 11 4 5 3 10 20 21 11 8 14 17 18 19 24 24 23 22 21 21 23 25 27 33 37 36 37 36 34 32 33 31 29 31 37 37 33 31 27 27 27 26 24 20 17 14 10 9
8 13 17 16 8 3 12 12 14 6 9 22 23 23 24 22 25 23 21 23 24 25 25 26 28 31 36 36 32 32 30 32 31 30 30 34 38 36 31 29 28 29 26 24 20 18 15 12 10
14 10 9 11 5 8 12 19 20 23 22 26 26 26 21 18 21 21 18 19 21 21 21 22 23 26 27 26 29 28 29 30 30 31 32 33 38 38 35 30 29 31 28 24 23 19 16 13 11
16 16 21 20 18 13 22 21 18 20 24 26 26 21 16 14 13 13 12 14 15 15 16 17 19 21 23 25 27 29 31 28 30 31 30 31 37 40 41 34 30 31 31 32 27 21 21 15 15
17 21 22 21 17 7 18 24 24 24 27 24 22 17 14 13 11 10 15 18 16 13 12 14 15 16 20 21 24 24 22 25 26 26 26 30 32 38 39 35 36 38 33 29 29 28 20 14 22
18 17 19 21 14 13 13 15 3 9 12 12 11 11 8 9 12 16 16 18 17 19 18 13 10 11 13 15 15 17 14 14 16 22 23 24 27 33 43 41 38 40 39 39 39 35 26 21 21
21 15 17 15 7 9 5 10 11 14 15 5 10 9 10 15 17 17 18 23 24 25 19 17 11 5 6 11 14 18 18 20 20 19 21 23 27 30 34 39 39 42 45 34 37 38 33 24 21
9 5 5 4 7 6 6 7 4 2 11 5 8 10 15 15 15 18 19 25 26 33 28 24 18 11 3 5 11 12 17 17 16 14 18 23 23 30 30 32 34 37 39 41 43 39 33 29 23
0 5 6 2 4 8 9 8 3 2 2 2 10 15 15 16 16 16 20 29 32 31 30 28 24 18 10 4 5 10 14 15 15 14 15 15 19 23 31 37 37 36 36 39 42 43 44 38 25
2 4 5 6 5 8 4 4 7 12 4 8 11 11 15 17 16 18 22 25 27 30 30 29 28 25 20 13 8 8 11 14 18 18 16 17 18 21 29 35 40 42 45 42 40 40 40 45 41
4 4 4 5 8 17 5 9 5 5 9 16 16 13 13 14 14 16 16 21 23 25 26 26 26 26 26 26 18 11 10 12 15 17 18 18 20 21 23 30 35 38 41 43 43 42 43 39 40
5 8 8 13 9 6 10 16 14 7 8 10 10 10 11 11 11 13 17 18 19 21 22 23 23 24 28 26 24 21 16 12 14 17 18 19 20 20 20 24 30 35 37 41 42 42 43 42 42
8 2 3 3 6 7 8 18 15 12 8 5 9 10 11 11 12 11 12 15 17 18 19 21 23 25 23 23 23 22 22 18 14 14 17 20 20 20 20 23 27 33 35 37 39 38 39 40 42
4 6 5 3 5 6 14 14 15 5 8 7 8 11 12 13 13 13 15 17 18 19 20 20 21 21 23 23 22 23 23 23 22 17 15 18 21 21 21 24 27 31 33 34 36 38 37 40 40
11 17 20 13 12 13 17 19 8 11 8 4 4 4 5 8 11 10 12 14 16 19 20 22 23 22 22 21 20 20 21 23 22 22 21 17 17 19 24 25 27 29 32 34 36 37 36 37 39
Wind_Direction
341 348 337 258 253 253 258 206 301 266 254 31 123 260 314 316 290 325 171 183 175 175 174 180 178 185 186 184 185 183 177 169 166 171 177 165 162 151 161 157 153 152 153 167 162 117 122 160 176
355 347 313 268 262 271 62 338 238 333 355 214 225 228 253 288 266 283 245 191 177 175 177 180 184 183 188 191 193 192 188 183 182 185 193 179 182 171 168 170 175 162 155 188 149 130 123 127 140
37 27 282 308 270 309 347 203 21 357 248 221 245 251 297 247 211 288 248 176 174 179 181 185 191 190 193 199 197 195 195 183 188 202 204 204 202 177 179 187 181 168 161 158 142 144 153 172 208
213 166 134 268 277 280 267 295 296 304 200 226 275 259 223 246 255 185 200 173 173 183 187 193 191 196 199 200 201 203 194 186 196 200 206 205 203 201 198 186 181 169 168 162 157 150 187 214 239
53 218 243 267 274 273 264 288 288 285 296 193 209 297 260 201 218 222 177 181 179 184 187 191 192 194 200 206 206 204 195 197 196 204 205 212 214 210 204 184 176 174 178 183 158 172 193 189 170
146 285 243 271 276 273 284 274 274 257 268 177 226 263 265 172 209 213 191 192 192 189 188 189 194 195 201 204 204 204 202 200 201 203 203 212 212 202 195 186 182 184 191 170 167 159 140 128 118
224 221 276 280 285 284 261 134 237 291 251 241 286 267 279 232 208 200 197 194 195 195 195 196 198 199 200 200 207 206 204 202 205 208 205 207 202 197 194 192 188 179 168 165 157 150 144 140 130
170 233 225 231 264 282 211 214 243 252 295 94 225 242 273 130 188 187 188 193 196 198 203 204 202 203 204 207 208 208 212 214 209 207 208 206 209 205 200 198 186 175 172 164 163 156 156 162 137
207 233 243 241 207 224 186 236 182 273 262 217 209 248 288 174 189 180 186 197 201 207 207 207 207 206 205 208 210 209 210 210 211 209 209 213 202 206 204 192 193 180 177 172 169 174 179 175 166
221 238 246 231 220 242 254 245 282 256 257 249 254 249 244 219 213 215 210 211 211 212 210 208 208 209 208 209 208 208 214 211 208 204 206 202 200 196 192 194 187 191 184 177 181 190 184 171 148
181 238 247 240 239 252 274 265 241 268 272 260 270 277 258 231 232 232 235 232 223 221 214 210 208 208 208 211 209 207 205 203 203 203 199 198 197 200 194 188 188 190 190 177 185 187 181 179 172
232 243 244 264 222 234 260 296 257 245 261 278 285 279 279 253 238 233 234 234 230 221 220 217 212 209 209 209 209 210 208 204 203 203 203 202 200 197 193 193 191 190 189 192 192 191 189 184 183
232 251 251 248 253 252 275 265 264 264 266 278 273 268 267 266 265 259 253 249 238 230 224 218 213 212 210 210 210 210 210 209 209 205 208 206 202 200 196 196 195 196 199 197 194 191 189 187 183
266 263 273 263 251 238 239 269 252 257 270 277 276 272 268 261 263 268 255 251 238 234 230 222 219 217 212 213 212 212 211 211 208 208 211 210 206 204 200 198 199 201 201 200 195 193 189 186 184
311 294 288 260 246 230 214 263 235 262 271 273 283 286 281 261 271 258 261 247 241 239 234 225 222 218 216 217 215 213 212 209 210 211 212 212 210 207 203 202 201 202 202 200 197 194 191 187 186
262 250 279 285 171 191 196 270 278 294 277 279 283 284 281 279 278 278 272 257 250 242 233 234 228 224 219 219 217 216 215 213 214 212 213 214 213 209 204 203 203 202 201 199 197 194 191 189 188
224 266 261 285 229 202 204 270 284 274 293 290 284 283 278 285 290 288 277 264 263 257 248 238 228 225 222 221 218 218 218 219 217 214 213 214 213 211 207 206 205 204 200 199 194 192 189 186 183
261 249 250 256 274 234 266 258 277 286 289 279 283 279 286 288 283 304 303 288 274 266 254 246 234 229 225 222 219 221 221 221 220 219 217 212 214 212 209 209 208 204 200 197 197 193 188 187 178
280 272 271 277 282 297 283 287 285 281 279 278 278 285 290 285 309 334 325 304 289 282 269 253 237 229 215 215 215 216 220 221 223 220 219 216 215 213 211 209 206 205 204 203 198 188 188 181 173
259 266 273 277 275 285 287 293 288 272 270 271 282 292 289 303 345 6 5 348 340 328 319 295 261 246 229 220 217 218 229 233 232 229 227 220 215 214 213 209 207 207 203 203 200 194 183 188 185
252 262 269 276 306 273 297 284 246 294 266 290 285 283 308 357 23 23 17 22 16 15 360 336 295 256 232 229 229 223 231 229 232 232 231 226 222 219 219 215 212 210 208 204 204 200 192 184 196
274 267 267 277 286 283 359 292 293 274 284 334 26 67 60 65 34 23 21 28 33 32 21 12 359 313 235 219 222 224 231 225 229 233 233 226 222 221 223 219 216 214 212 208 209 207 202 191 185
272 352 297 282 261 294 240 259 321 260 263 181 60 57 67 45 37 36 33 32 29 29 24 24 26 26 354 258 236 235 242 256 260 245 223 217 223 223 222 221 218 216 214 212 212 210 207 206 201
35 299 273 228 267 262 264 222 100 190 276 351 59 77 52 47 39 38 35 35 34 30 26 26 26 26 20 354 273 263 266 263 252 242 234 229 229 227 222 218 216 219 220 218 217 216 212 210 211
172 300 299 260 222 268 93 269 273 275 255 4 84 70 52 41 39 33 31 31 31 31 30 28 28 23 15 19 345 299 281 272 268 265 251 242 228 228 226 219 216 216 222 222 222 219 217 214 210
175 217 207 277 283 291 285 256 266 296 63 65 55 52 46 40 37 36 36 35 33 31 29 28 29 26 20 22 3 337 307 288 278 272 259 252 251 244 242 228 222 219 218 218 221 220 222 220 219
193 216 242 258 268 273 254 270 277 18 169 73 59 50 47 44 43 36 27 27 29 29 28 25 24 22 24 18 13 4 346 318 294 283 270 263 256 254 246 237 231 224 222 220 217 216 220 220 220
226 82 219 184 227 231 260 288 273 251 169 70 47 34 29 22 23 28 28 29 24 22 23 23 24 23 14 10 11 7 4 352 325 303 288 279 269 256 246 241 238 231 225 222 220 220 220 218 219
188 211 212 199 223 284 278 273 312 344 80 71 26 16 18 20 15 11 13 16 17 18 16 17 17 14 11 9 4 2 1 3 357 344 317 295 286 270 256 247 242 235 229 227 223 224 223 219 217
254 263 252 243 250 247 254 256 106 114 107 97 84 45 12 12 9 5 9 9 11 10 12 8 5 7 5 3 1 0 359 356 358 358 348 328 300 284 270 258 249 241 233 230 227 227 225 225 221
Height
824 823 822 821 829 826 826 822 818 817 815 811 812 812 809 807 805 814 802 803 803 807 811 815 818 821 824 825 828 830 831 833 835 836 837 838 840 840 840 841 841 842 842 841 841 841 841 841 841
825 824 824 820 831 832 819 817 820 814 812 813 813 812 811 806 801 801 803 802 804 808 810 814 817 819 823 825 826 828 831 833 835 836 837 837 839 840 841 841 842 842 842 841 841 840 840 841 840
825 825 822 826 832 828 823 815 812 813 812 812 811 809 806 802 800 801 802 803 805 809 812 815 816 819 821 824 826 827 829 832 834 836 837 837 838 839 840 841 841 842 841 841 841 840 840 840 840
826 825 827 832 830 822 821 809 812 810 813 813 810 809 804 800 800 801 800 802 805 810 812 814 816 819 821 823 825 827 829 831 833 835 836 838 838 839 839 839 840 840 841 841 841 841 840 840 839
826 824 832 837 832 823 815 813 814 812 811 811 812 804 803 799 799 799 800 801 803 806 810 813 816 818 821 823 825 827 829 831 832 835 836 837 838 838 839 839 839 839 840 840 840 840 839 839 838
826 826 835 833 827 820 815 812 815 812 809 811 813 807 798 797 798 799 800 802 804 805 807 810 814 817 820 822 824 826 827 829 831 833 834 836 836 837 837 838 838 838 839 840 840 839 839 839 839
826 829 832 833 828 824 814 815 813 808 809 806 805 806 794 796 797 798 799 802 804 806 807 809 812 814 818 820 823 824 827 828 830 832 833 834 835 835 836 837 837 837 838 839 840 839 839 839 839
825 826 837 830 825 822 811 813 810 808 803 806 805 801 794 793 795 796 797 800 802 804 805 807 809 812 815 817 820 822 824 827 829 830 832 832 833 835 836 836 837 837 838 838 838 838 838 839 838
829 831 830 826 829 811 809 811 809 805 803 804 799 793 789 793 793 796 797 798 799 800 801 804 806 808 811 813 815 818 821 824 826 828 829 831 833 834 835 836 837 838 838 838 838 838 838 839 838
826 830 820 811 809 810 806 809 805 807 798 796 794 788 790 791 793 794 793 792 793 793 795 798 800 803 807 809 810 813 816 819 821 824 826 828 830 832 834 835 837 837 837 837 837 838 838 838 838
825 821 809 809 807 809 808 808 805 803 796 787 786 782 782 787 788 789 788 787 786 789 791 790 793 797 801 804 807 809 810 812 815 818 820 823 825 827 830 833 835 836 836 837 837 837 837 838 838
827 815 811 808 809 812 811 805 804 800 783 779 780 781 780 781 779 780 779 779 781 783 784 787 788 791 794 797 800 804 806 807 808 811 813 815 819 823 826 829 831 832 834 834 835 837 837 838 839
822 810 808 807 810 809 808 801 801 788 780 776 777 780 778 776 773 774 775 775 776 776 777 779 782 783 786 790 792 794 797 800 803 806 807 810 814 816 820 824 826 828 829 831 833 835 836 837 838
813 813 808 805 805 804 805 789 798 776 774 773 773 773 771 771 767 767 769 768 769 769 769 773 774 777 779 780 784 786 789 791 795 797 799 802 806 809 813 817 820 823 826 828 831 833 834 835 836
817 817 803 794 797 800 801 797 788 768 771 772 765 762 763 764 764 761 759 760 761 761 763 763 765 767 770 772 775 777 780 784 787 789 791 795 799 802 806 810 814 818 821 824 827 830 832 834 834
820 818 810 785 799 796 797 786 764 763 771 766 760 756 753 749 752 754 754 753 754 753 752 753 755 757 761 764 768 770 774 775 779 784 787 789 793 798 801 805 809 812 815 819 823 826 829 832 834
814 808 800 797 790 793 797 783 766 768 771 763 758 753 747 746 741 746 746 746 745 745 745 745 747 749 752 756 762 765 770 772 774 777 779 783 787 792 797 800 804 807 811 815 818 822 826 830 833
798 807 805 804 783 794 794 789 777 767 767 758 749 740 741 741 737 740 742 741 739 739 738 739 741 744 749 754 757 761 763 765 769 772 773 776 780 786 791 796 800 802 806 810 814 818 822 826 829
799 803 800 790 786 793 780 774 772 768 758 749 741 737 737 736 736 739 739 737 734 732 734 736 737 738 742 746 750 754 753 759 762 765 768 772 774 778 782 787 793 797 800 804 808 813 817 821 825
806 802 796 785 785 793 779 772 765 759 749 738 738 738 736 735 738 735 737 738 736 733 733 736 736 739 741 742 744 750 754 757 761 764 766 768 770 772 777 782 784 787 794 800 803 806 811 816 818
799 804 792 788 789 787 786 762 762 744 742 738 737 737 740 741 742 742 741 739 737 734 733 734 734 736 737 743 748 750 751 754 757 761 763 765 770 771 772 775 778 782 786 788 792 797 801 807 812
800 788 795 797 797 789 789 772 758 744 738 738 736 738 740 744 749 750 749 745 740 735 737 734 733 734 736 740 744 747 747 746 748 754 758 760 763 767 771 773 775 775 778 784 789 792 794 799 801
798 803 802 802 796 797 783 790 745 753 741 737 740 746 749 756 759 758 758 756 755 741 740 737 736 737 739 742 744 745 746 749 751 750 748 751 755 759 764 769 772 774 775 776 777 784 792 795 796
801 798 800 806 799 789 764 775 754 745 741 741 744 759 763 765 766 766 765 753 751 752 751 747 746 744 741 741 743 746 747 748 747 746 748 750 753 753 754 754 761 769 772 774 775 776 778 784 792
801 801 799 790 792 775 780 780 758 741 744 750 760 769 764 764 763 760 757 760 761 759 757 755 752 751 750 743 744 745 745 746 746 746 746 746 746 747 746 747 748 751 759 766 771 774 774 774 775
805 803 821 809 793 775 776 767 746 740 746 758 764 771 771 770 770 768 767 765 765 764 763 762 760 757 754 745 748 745 744 743 743 742 743 741 743 741 744 744 743 745 748 752 759 763 768 771 773
801 802 791 803 806 805 770 748 742 749 743 764 770 773 776 776 774 773 772 772 769 766 766 765 760 760 751 751 751 749 745 741 741 741 740 737 736 737 739 740 741 740 743 745 747 750 754 759 763
786 787 799 805 802 788 765 755 742 742 747 760 772 778 779 780 779 775 776 773 771 769 765 764 760 756 757 757 754 751 748 743 738 737 736 736 734 733 732 734 733 737 736 738 743 744 747 748 751
794 791 800 806 797 782 776 748 727 738 763 765 773 780 781 780 781 780 776 775 774 770 767 764 762 761 758 754 753 751 747 742 740 734 732 733 733 731 728 728 727 727 730 735 734 736 741 740 741
773 774 773 777 767 757 755 741 749 762 774 780 784 787 789 788 785 783 779 778 777 775 769 767 765 762 759 757 755 752 747 746 742 737 734 729 727 727 726 723 722 722 721 724 728 730 731 735 736